Wind_Speed
32 33 33 33 33 33 33 33 33 34 34 33 32 33 32 31 31 31 31 31 30 28 28 27 26 26 25 25 25 25 25 24 24 24 24 23 24 24 24 24 24 24 24
34 34 34 34 34 35 34 34 35 35 35 35 35 35 35 34 34 33 33 33 32 31 29 29 28 28 28 27 27 27 27 27 26 26 25 25 25 25 25 24 25 25 25
35 36 36 36 36 36 36 36 36 37 37 37 37 38 37 36 36 35 34 34 34 34 33 32 31 30 30 30 29 29 29 29 28 28 28 28 27 27 27 27 27 27 27
36 37 37 37 37 38 38 38 37 37 38 38 38 38 38 38 38 37 36 35 35 36 35 35 35 33 32 32 32 32 31 31 31 30 31 30 30 30 30 29 29 29 28
36 37 38 38 38 39 39 39 38 38 38 38 38 39 39 38 38 38 37 36 36 36 36 37 37 35 35 34 34 34 34 34 32 32 33 32 32 31 32 31 30 30 30
37 37 38 39 39 39 39 40 39 39 38 39 40 40 40 39 40 39 38 37 37 37 37 38 38 37 36 36 36 36 36 36 35 35 35 34 34 33 33 33 32 32 32
39 38 39 39 40 41 41 41 42 41 40 39 40 41 41 40 40 40 40 40 40 39 38 38 39 39 39 38 38 38 38 38 37 37 36 36 36 35 34 34 34 34 34
40 40 40 40 41 42 42 43 43 42 41 41 41 41 42 42 42 42 42 42 41 41 40 40 40 40 41 39 39 39 39 39 39 38 38 38 37 37 37 37 36 36 36
41 41 40 40 41 42 42 42 44 44 43 44 43 44 43 43 43 43 43 43 43 43 43 43 42 42 41 40 40 40 40 40 40 40 40 40 40 39 39 38 38 38 38
41 42 42 41 42 43 42 42 44 45 45 45 45 46 46 45 44 44 44 44 44 44 44 43 43 43 42 42 43 43 43 42 42 42 41 42 42 41 41 41 41 40 40
43 43 44 43 42 43 43 42 43 45 46 46 46 47 48 48 47 46 46 46 46 46 46 46 45 44 44 45 44 44 44 44 44 44 43 43 43 43 43 43 43 43 43
45 46 46 45 44 44 45 45 45 45 47 47 47 47 48 49 48 48 48 48 48 48 47 47 46 45 45 44 44 45 46 46 45 45 44 44 44 45 45 45 45 45 45
47 48 47 47 46 46 46 46 46 47 48 48 48 48 49 49 50 50 50 50 50 50 49 47 47 47 47 46 45 45 45 46 46 46 46 46 46 46 46 46 46 46 46
47 49 49 49 48 48 47 47 47 47 49 50 49 49 49 49 50 51 51 51 51 52 51 50 50 49 49 48 48 47 46 46 47 47 47 48 48 48 48 49 49 48 48
48 49 49 49 50 49 49 49 49 49 50 51 50 50 51 51 51 51 51 52 53 53 53 52 52 51 51 50 51 50 50 49 49 49 49 49 50 49 49 49 49 49 49
48 49 50 50 50 50 50 50 51 51 51 51 50 51 52 53 53 53 52 52 53 54 55 54 53 53 53 52 52 51 51 50 50 50 51 51 50 49 49 50 50 50 50
48 49 49 51 51 51 51 51 51 51 51 51 51 51 52 52 52 53 52 52 52 52 53 54 55 55 54 54 53 52 51 51 51 51 50 50 50 50 51 51 51 51 52
48 49 49 50 50 50 50 51 51 51 51 50 50 50 49 50 51 51 51 52 52 52 52 52 53 54 54 54 53 52 52 52 51 51 50 51 51 52 52 52 53 53 52
49 48 49 49 50 50 49 49 49 50 50 50 51 50 49 49 50 51 51 52 53 53 53 53 52 54 54 53 53 53 53 52 52 52 52 52 53 53 53 54 54 54 54
48 48 48 48 48 48 48 49 49 49 50 51 51 51 50 50 50 50 51 52 52 52 53 53 52 52 52 53 52 53 53 53 52 52 52 52 53 53 54 54 54 55 55
48 48 48 47 48 48 48 48 48 49 50 51 52 52 52 51 50 51 51 51 51 52 52 52 51 52 52 52 53 53 53 52 52 52 52 52 53 53 53 53 54 54 55
48 48 48 47 48 49 48 47 47 47 48 49 50 51 52 52 51 52 51 51 51 51 51 51 51 52 52 53 54 53 53 52 52 52 52 52 52 52 52 52 53 53 53
47 48 49 49 49 49 48 47 47 48 47 48 49 50 50 51 52 52 51 51 51 51 51 51 51 51 52 53 53 53 52 52 51 51 51 51 52 52 52 51 52 52 52
48 48 48 49 49 49 49 49 49 48 48 48 48 49 49 50 52 52 52 53 52 52 51 51 50 51 51 50 51 51 51 51 51 51 52 52 51 51 50 50 50 51 51
47 47 48 48 47 47 47 48 49 49 49 48 48 49 49 49 50 52 53 53 52 52 52 52 52 51 51 50 50 50 50 51 51 51 52 52 51 52 51 51 51 51 51
46 46 47 47 48 48 48 49 49 50 50 50 50 50 50 50 50 51 51 52 52 52 52 52 52 52 52 52 52 51 51 51 51 51 51 51 51 52 51 50 50 51 51
Wind_Direction
256 255 256 256 256 257 258 259 257 255 255 254 254 253 252 253 254 254 254 254 256 258 258 258 258 259 260 261 262 263 264 265 268 269 269 270 270 271 271 271 271 271 272
258 257 257 258 258 258 259 260 259 256 255 255 255 255 254 255 254 255 255 255 255 256 257 259 259 259 260 261 262 262 264 266 267 268 268 270 271 270 270 270 271 270 271
259 259 259 260 260 261 261 261 261 257 254 254 255 256 255 255 255 255 255 255 255 255 257 258 258 259 260 262 263 264 265 265 267 268 268 269 271 271 270 269 270 269 268
260 260 260 260 261 261 261 261 261 258 256 255 254 256 256 255 255 256 256 255 256 256 257 258 259 259 261 263 264 264 264 265 267 268 269 269 271 270 270 270 269 268 267
260 261 261 262 262 262 261 260 258 259 257 256 255 255 255 255 255 255 256 256 256 256 257 258 259 260 261 262 264 264 263 264 266 268 269 269 269 269 270 269 268 267 267
260 262 262 262 262 262 261 260 258 258 257 256 255 254 255 255 255 255 255 255 256 256 257 258 258 260 261 262 263 263 264 265 265 267 268 268 269 269 270 269 268 268 269
259 262 262 264 263 262 262 261 259 258 257 256 256 254 254 255 256 256 255 255 258 258 258 259 260 260 261 262 263 263 264 265 267 267 267 267 268 268 268 268 269 270 271
260 262 263 264 264 263 263 261 259 258 256 256 256 255 254 255 255 256 257 257 258 258 259 259 260 261 262 262 263 263 264 265 266 267 267 266 267 267 268 267 268 268 269
260 260 262 263 264 264 264 261 259 258 256 255 256 256 254 255 257 256 257 257 257 258 258 259 260 261 262 263 263 263 265 265 266 266 266 267 267 267 267 268 268 269 269
260 261 261 265 266 265 265 262 260 259 257 256 256 256 255 255 255 255 255 256 256 257 258 259 260 260 261 263 264 264 264 265 267 267 267 267 267 267 267 268 268 268 268
261 262 263 265 267 266 265 264 262 259 257 257 258 257 256 256 256 256 255 255 256 257 258 258 260 260 261 262 263 264 264 265 266 266 266 266 266 266 266 267 267 267 267
263 264 266 266 267 267 265 264 262 260 258 257 258 257 257 256 257 257 257 256 256 256 257 258 259 260 261 261 263 263 263 264 265 265 264 265 266 266 266 266 267 267 267
264 265 266 266 266 267 265 264 262 260 259 258 258 257 257 257 258 258 258 256 256 256 257 257 259 259 260 261 263 263 263 264 265 265 264 265 266 266 266 266 266 266 267
265 266 266 266 266 265 265 264 262 260 260 259 258 258 257 258 259 259 258 257 256 256 256 258 259 259 261 262 262 263 265 265 266 266 266 265 266 267 267 266 266 266 267
267 267 267 267 267 266 265 264 263 262 261 259 259 258 257 258 259 259 259 258 257 256 256 258 259 259 260 261 262 263 265 266 266 266 266 266 267 267 266 267 266 266 267
268 268 268 268 268 267 266 265 263 261 260 259 259 258 258 258 258 259 259 258 258 258 258 257 259 259 260 262 262 263 265 266 266 265 266 267 267 266 267 267 267 267 269
269 268 268 268 267 268 268 266 263 261 260 260 259 259 258 258 258 258 258 258 259 259 259 259 259 260 261 262 263 263 264 265 266 266 266 266 265 266 267 268 268 268 269
268 268 267 267 267 267 268 267 265 262 260 259 259 259 258 257 256 257 257 257 258 259 260 259 259 260 260 262 262 262 263 265 266 266 266 266 266 267 267 268 268 268 269
267 267 267 266 266 267 267 266 264 263 261 260 260 259 258 258 257 257 258 258 259 260 261 261 260 260 261 261 262 262 263 265 265 265 266 266 267 267 268 268 268 268 269
266 266 267 266 265 266 266 265 263 262 261 260 260 259 259 259 259 259 258 258 259 260 261 261 261 261 261 261 262 263 264 265 264 265 266 266 267 268 268 268 268 268 268
266 265 265 265 263 264 266 265 264 263 262 261 261 260 260 260 260 260 259 258 259 260 260 261 261 260 261 261 262 264 264 263 264 265 266 267 267 268 268 268 268 268 268
266 265 264 265 264 263 263 263 264 264 263 263 262 261 261 260 260 260 259 259 260 260 260 260 260 260 260 261 262 263 263 263 263 264 265 266 268 268 269 269 269 268 268
265 265 266 266 265 264 263 263 263 264 264 264 263 262 262 261 261 261 260 260 260 260 261 261 261 260 260 261 261 261 261 262 263 264 264 266 267 268 269 269 269 269 269
266 265 266 266 266 266 265 264 264 264 265 266 264 263 263 262 261 260 260 260 260 260 260 260 261 260 260 260 260 260 261 262 263 264 265 266 267 268 268 269 269 269 269
266 266 267 267 266 265 265 266 265 265 266 266 265 264 264 263 262 261 261 261 260 260 260 261 261 261 260 259 260 261 261 262 263 264 265 266 266 267 267 269 269 269 269
265 266 267 267 267 266 266 267 266 267 267 266 266 265 264 264 262 262 261 261 261 261 261 261 261 261 260 259 260 261 263 264 264 264 265 267 267 267 267 267 268 269 269
Height
5785 5785 5786 5786 5787 5788 5789 5790 5791 5792 5794 5795 5796 5798 5800 5801 5802 5803 5805 5806 5807 5808 5808 5809 5809 5809 5810 5811 5811 5811 5811 5811 5811 5811 5811 5811 5810 5810 5810 5809 5809 5808 5808
5777 5778 5778 5779 5780 5781 5781 5782 5783 5784 5786 5787 5789 5790 5792 5794 5795 5796 5797 5799 5800 5801 5801 5802 5803 5803 5803 5804 5805 5805 5805 5805 5805 5805 5805 5805 5805 5804 5804 5803 5803 5802 5802
5770 5770 5771 5771 5772 5772 5773 5773 5774 5775 5777 5778 5780 5782 5783 5785 5787 5788 5790 5791 5792 5794 5794 5795 5796 5796 5797 5797 5798 5798 5799 5799 5799 5799 5799 5798 5798 5798 5797 5797 5796 5796 5795
5762 5762 5763 5763 5763 5764 5764 5765 5765 5766 5768 5769 5771 5773 5775 5777 5779 5780 5782 5783 5784 5786 5787 5788 5788 5789 5789 5790 5790 5791 5791 5791 5791 5791 5791 5791 5791 5791 5790 5789 5789 5789 5788
5753 5754 5754 5754 5754 5754 5754 5755 5756 5757 5759 5761 5762 5764 5766 5768 5770 5771 5773 5775 5776 5777 5779 5779 5780 5781 5781 5782 5782 5783 5783 5783 5784 5784 5784 5783 5783 5783 5782 5782 5782 5781 5781
5744 5745 5745 5745 5745 5745 5745 5746 5747 5748 5750 5751 5753 5755 5757 5759 5760 5762 5764 5766 5767 5769 5770 5771 5771 5772 5772 5773 5774 5774 5775 5775 5775 5775 5775 5775 5775 5774 5774 5774 5774 5773 5773
5735 5736 5735 5735 5735 5735 5735 5736 5737 5738 5740 5742 5743 5745 5747 5749 5751 5753 5755 5757 5758 5759 5761 5761 5762 5763 5764 5764 5765 5765 5765 5766 5766 5766 5766 5766 5766 5766 5766 5766 5766 5766 5765
5726 5726 5726 5726 5726 5725 5725 5725 5726 5727 5729 5731 5733 5735 5737 5740 5741 5743 5745 5747 5749 5750 5751 5752 5753 5753 5754 5754 5755 5755 5755 5756 5756 5756 5756 5756 5756 5756 5756 5757 5757 5757 5757
5715 5716 5716 5716 5715 5715 5715 5715 5715 5716 5718 5720 5722 5724 5726 5729 5731 5733 5735 5737 5738 5739 5740 5741 5742 5743 5744 5744 5744 5745 5745 5745 5745 5746 5746 5746 5746 5747 5747 5747 5747 5748 5748
5705 5705 5705 5705 5705 5704 5704 5704 5704 5705 5707 5708 5711 5713 5715 5717 5720 5722 5724 5725 5727 5728 5729 5730 5731 5732 5733 5733 5734 5734 5734 5734 5734 5735 5735 5735 5736 5736 5736 5737 5737 5738 5738
5694 5694 5694 5694 5694 5694 5694 5693 5693 5694 5695 5697 5699 5701 5703 5705 5707 5710 5713 5714 5715 5717 5718 5719 5720 5721 5722 5722 5722 5722 5722 5722 5723 5723 5724 5724 5724 5724 5725 5725 5726 5726 5727
5682 5682 5682 5683 5683 5682 5682 5682 5682 5683 5683 5685 5687 5689 5691 5693 5695 5698 5700 5702 5703 5705 5706 5707 5708 5709 5709 5710 5710 5710 5710 5710 5710 5711 5711 5712 5712 5713 5713 5713 5714 5714 5714
5670 5670 5670 5671 5670 5670 5670 5669 5670 5671 5672 5673 5675 5677 5679 5681 5683 5685 5687 5688 5690 5692 5694 5695 5695 5696 5697 5697 5697 5697 5697 5698 5698 5698 5699 5700 5700 5700 5700 5701 5701 5701 5701
5658 5658 5658 5658 5658 5658 5657 5657 5658 5659 5660 5662 5663 5664 5666 5668 5670 5671 5674 5675 5677 5679 5681 5682 5682 5683 5684 5685 5685 5685 5685 5685 5685 5686 5686 5687 5687 5687 5687 5687 5688 5688 5688
5645 5645 5645 5645 5645 5645 5645 5645 5645 5646 5647 5649 5650 5652 5653 5655 5656 5658 5659 5661 5664 5666 5668 5669 5669 5670 5671 5671 5672 5672 5672 5672 5672 5672 5673 5673 5673 5673 5674 5674 5674 5674 5674
5632 5632 5632 5632 5631 5632 5632 5632 5633 5633 5634 5636 5637 5638 5640 5641 5642 5643 5645 5647 5649 5651 5653 5655 5656 5656 5657 5658 5658 5658 5658 5658 5658 5659 5659 5659 5659 5660 5660 5660 5660 5660 5660
5618 5618 5618 5618 5618 5618 5618 5618 5619 5620 5621 5622 5623 5624 5626 5627 5628 5629 5631 5633 5634 5636 5638 5640 5641 5642 5643 5644 5644 5644 5644 5645 5645 5645 5645 5645 5645 5646 5646 5646 5646 5645 5645
5605 5605 5605 5604 5604 5604 5604 5605 5605 5606 5607 5608 5609 5610 5611 5613 5614 5615 5617 5618 5619 5621 5623 5625 5626 5627 5628 5629 5630 5630 5630 5631 5631 5631 5631 5631 5631 5631 5631 5631 5631 5631 5630
5590 5590 5590 5590 5590 5590 5591 5591 5591 5592 5594 5595 5596 5597 5598 5599 5600 5601 5603 5604 5605 5606 5608 5610 5611 5612 5613 5614 5615 5615 5616 5616 5616 5616 5617 5617 5616 5616 5616 5616 5616 5615 5615
5576 5577 5576 5577 5577 5577 5577 5577 5578 5579 5580 5581 5582 5583 5584 5585 5586 5587 5589 5590 5591 5592 5593 5595 5596 5597 5598 5599 5600 5601 5601 5601 5602 5602 5602 5602 5602 5601 5601 5601 5601 5600 5599
5562 5563 5563 5563 5563 5563 5563 5563 5565 5566 5566 5567 5568 5569 5570 5571 5572 5573 5575 5576 5577 5578 5579 5580 5581 5583 5583 5584 5585 5586 5586 5587 5587 5587 5587 5587 5587 5587 5586 5585 5585 5584 5583
5549 5549 5549 5549 5549 5549 5549 5550 5551 5552 5552 5553 5554 5555 5556 5557 5558 5559 5560 5561 5562 5564 5565 5566 5567 5568 5568 5569 5570 5570 5571 5573 5574 5573 5572 5572 5571 5571 5571 5570 5569 5569 5568
5535 5535 5535 5535 5535 5535 5535 5536 5536 5537 5538 5538 5539 5540 5541 5542 5543 5544 5545 5546 5547 5549 5550 5552 5552 5552 5553 5554 5555 5556 5556 5557 5558 5557 5557 5558 5557 5556 5556 5555 5554 5554 5553
5521 5521 5521 5521 5521 5520 5521 5521 5522 5523 5523 5523 5524 5525 5526 5527 5527 5528 5530 5531 5532 5534 5535 5536 5538 5538 5538 5538 5539 5540 5541 5542 5543 5542 5541 5543 5542 5542 5541 5540 5540 5539 5539
5507 5508 5508 5507 5507 5507 5506 5507 5507 5508 5508 5509 5509 5509 5510 5511 5512 5513 5515 5516 5518 5518 5518 5520 5521 5522 5523 5523 5524 5525 5525 5526 5527 5527 5526 5527 5527 5527 5527 5526 5525 5524 5524
5494 5494 5494 5493 5493 5492 5492 5492 5492 5493 5494 5494 5494 5494 5495 5496 5497 5497 5499 5500 5501 5502 5503 5504 5505 5507 5507 5508 5508 5509 5510 5510 5511 5512 5511 5511 5511 5510 5512 5512 5511 5509 5509